Weather History for West Point, VA

Change the Weather History Date:

Sunday, May 27, 2012

  Actual Average (KRIC) Record (KRIC)
Temperature  
Mean Temperature 73 °F 70 °F  
Max Temperature 85 °F 81 °F 97 °F (1941)
Min Temperature 61 °F 59 °F 41 °F (1961)
Degree Days  
Heating Degree Days 0 1  
Month to date heating degree days 70  
Since 1 July heating degree days 3762  
Cooling Degree Days 8 6  
Month to date cooling degree days 92  
Year to date cooling degree days 134  
Growing Degree Days 23 (Base 50)    
Moisture  
Dew Point 71 °F    
Average Humidity 86    
Maximum Humidity 100    
Minimum Humidity 62    
Precipitation  
Precipitation 0.00 in 0.13 in 1.67 in (1891)
Month to date precipitation 3.26  
Year to date precipitation 16.37  
Snow  
Snow 0.00 in 0.00 in 0.00 in (2002)
Month to date snowfall 0.0  
Since 1 July snowfall 10.3  
Snow Depth -    
Sea Level Pressure  
Sea Level Pressure 30.15 in    
Wind  
Wind Speed 3 mph (SE)    
Max Wind Speed 10 mph    
Max Gust Speed -    
Visibility 9 miles    
Events      
T = Trace of Precipitation, MM = Missing Value Source: NWS Daily Summary

Daily Weather History Graph

Daily Weather History Graph

Search for Another Location

Airport:

Trip Planner

Search our weather history database for the weather conditions in past years. The results will help you decide how hot, cold, wet, or windy it might be!

Date:

Astronomy

May. 27, 2012 Rise Set
Actual Time 5:49 AM EDT 8:19 PM EDT
Civil Twilight 5:19 AM EDT 8:49 PM EDT
Nautical Twilight 4:41 AM EDT 9:27 PM EDT
Astronomical Twilight 4:00 AM EDT 10:08 PM EDT
Moon 11:48 AM EDT (5/27) 12:28 AM EDT (5/27)
Length of Visible Light 15h 30m
Length of Day
14h 30m
Waxing Crescent, 38% of the Moon is Illuminated
May 27
Waxing Crescent
May 28
First Quarter
Jun 4
Full
Jun 11
Last Quarter
Jun 19
New

Hourly Weather History & Observations

Time (EDT) Temp. Heat Index Dew Point Humidity Pressure Visibility Wind Dir Wind Speed Gust Speed Precip Events Conditions
12:15 AM 69.1 °F - 69.1 °F 100% 30.16 in 10.0 mi Calm Calm - N/A   Clear
12:35 AM 68.4 °F - 68.4 °F 100% 30.16 in 10.0 mi East 3.5 mph - N/A   Clear
12:55 AM 68.5 °F - 68.5 °F 100% 30.16 in 7.0 mi Calm Calm - N/A   Clear
1:15 AM 68.7 °F - 68.7 °F 100% 30.16 in 7.0 mi Calm Calm - N/A   Clear
1:35 AM 67.3 °F - 67.3 °F 100% 30.16 in 10.0 mi Calm Calm - N/A   Clear
1:55 AM 66.7 °F - 66.7 °F 100% 30.16 in 7.0 mi Calm Calm - N/A   Clear
2:15 AM 66.7 °F - 66.7 °F 100% 30.16 in 10.0 mi Calm Calm - N/A   Clear
2:35 AM 64.9 °F - 64.9 °F 100% 30.16 in 7.0 mi Calm Calm - N/A   Clear
2:55 AM 63.5 °F - 63.5 °F 100% 30.15 in 0.8 mi East 3.5 mph - N/A   Unknown
3:15 AM 63.7 °F - 63.7 °F 100% 30.15 in 2.0 mi Calm Calm - N/A   Unknown
3:35 AM 66.4 °F - 66.4 °F 100% 30.15 in 4.0 mi Calm Calm - N/A   Clear
4:15 AM 64.9 °F - 64.9 °F 100% 30.15 in 4.0 mi Calm Calm - N/A   Clear
4:35 AM 65.1 °F - 65.1 °F 100% 30.15 in 2.5 mi Calm Calm - N/A   Clear
4:55 AM 64.6 °F - 64.6 °F 100% 30.15 in 7.0 mi Calm Calm - N/A   Clear
5:15 AM 61.5 °F - 61.5 °F 100% 30.15 in 7.0 mi Calm Calm - N/A   Clear
5:35 AM 61.7 °F - 61.7 °F 100% 30.16 in 10.0 mi Calm Calm - N/A   Clear
5:55 AM 63.0 °F - 63.0 °F 100% 30.16 in 2.5 mi Calm Calm - N/A   Clear
6:15 AM 63.3 °F - 63.3 °F 100% 30.16 in 7.0 mi Calm Calm - N/A   Unknown
6:35 AM 63.1 °F - 63.1 °F 100% 30.17 in 1.2 mi Calm Calm - N/A   Unknown
6:55 AM 66.4 °F - 66.4 °F 100% 30.17 in 7.0 mi Calm Calm - N/A   Clear
7:15 AM 69.3 °F - 69.3 °F 100% 30.18 in 7.0 mi Calm Calm - N/A   Clear
7:35 AM 71.6 °F - 71.6 °F 100% 30.18 in 7.0 mi Calm Calm - N/A   Clear
7:55 AM 72.9 °F - 72.9 °F 100% 30.19 in 10.0 mi Calm Calm - N/A   Clear
8:15 AM 74.1 °F - 73.9 °F 99% 30.19 in - SSE 5.8 mph - N/A   Unknown
8:35 AM 74.5 °F - 73.4 °F 96% 30.19 in 10.0 mi SE 4.6 mph - N/A   Scattered Clouds
8:55 AM 76.1 °F - 73.0 °F 90% 30.20 in 10.0 mi SSE 6.9 mph - N/A   Clear
9:15 AM 77.0 °F - 72.1 °F 85% 30.19 in 10.0 mi SSE 8.1 mph - N/A   Clear
9:35 AM 77.7 °F - 71.6 °F 81% 30.19 in 10.0 mi SSE 9.2 mph - N/A   Clear
9:55 AM 78.8 °F - 71.1 °F 77% 30.19 in - SSE 10.4 mph - N/A   Unknown
10:15 AM 79.7 °F - 70.5 °F 73% 30.18 in 10.0 mi SSE 6.9 mph - N/A   Clear
10:35 AM 80.6 °F 84.1 °F 70.3 °F 71% 30.19 in 10.0 mi SSE 6.9 mph - N/A   Clear
10:55 AM 80.6 °F 84.9 °F 72.3 °F 76% 30.18 in 10.0 mi South 9.2 mph - N/A   Clear
11:15 AM 80.8 °F 85.2 °F 72.5 °F 76% 30.18 in 10.0 mi SSE 8.1 mph - N/A   Clear
11:35 AM 81.7 °F 86.7 °F 72.7 °F 74% 30.18 in 10.0 mi SSE 8.1 mph - N/A   Clear
11:55 AM 81.7 °F 86.3 °F 71.8 °F 72% - - North - - N/A   Unknown
12:15 PM 82.2 °F 86.9 °F 71.4 °F 70% 30.17 in 10.0 mi South 10.4 mph - N/A   Clear
12:35 PM 82.8 °F 87.4 °F 71.1 °F 68% 30.16 in 10.0 mi SSE 8.1 mph - N/A   Clear
12:55 PM 84.0 °F 89.6 °F 72.0 °F 67% 30.16 in 10.0 mi SSE 9.2 mph - N/A   Clear
1:15 PM 83.8 °F 89.2 °F 71.8 °F 67% 30.16 in 10.0 mi SSE 6.9 mph - N/A   Scattered Clouds
1:55 PM 85.1 °F 91.1 °F 72.0 °F 65% 30.15 in 10.0 mi South 9.2 mph - N/A   Scattered Clouds
2:15 PM 85.1 °F 90.8 °F 71.6 °F 64% 30.15 in 10.0 mi South 8.1 mph - N/A   Scattered Clouds
2:35 PM 85.5 °F 90.8 °F 71.2 °F 62% 30.14 in 10.0 mi SE 5.8 mph - N/A   Scattered Clouds
2:55 PM 84.9 °F 90.1 °F 71.2 °F 63% 30.14 in 10.0 mi SSE 9.2 mph - N/A   Scattered Clouds
3:15 PM 85.1 °F 90.8 °F 71.8 °F 64% 30.13 in 10.0 mi SSE 8.1 mph - N/A   Clear
3:35 PM 85.1 °F 90.8 °F 71.8 °F 64% 30.13 in 10.0 mi East 5.8 mph - N/A   Clear
3:55 PM 85.1 °F 90.4 °F 71.1 °F 63% 30.12 in 10.0 mi SE 4.6 mph - N/A   Clear
4:15 PM 85.3 °F 92.2 °F 73.0 °F 67% 30.11 in 10.0 mi SSE 9.2 mph - N/A   Scattered Clouds
4:35 PM 85.1 °F 92.6 °F 73.8 °F 69% 30.11 in 10.0 mi SE 9.2 mph - N/A   Unknown
4:55 PM 84.6 °F 91.4 °F 73.2 °F 69% 30.11 in 10.0 mi ESE 8.1 mph - N/A   Scattered Clouds
5:15 PM 84.2 °F 90.6 °F 73.2 °F 69% 30.11 in 10.0 mi East 8.1 mph - N/A   Clear
5:35 PM 83.5 °F 89.7 °F 73.2 °F 71% 30.10 in 10.0 mi East 9.2 mph - N/A   Scattered Clouds
5:55 PM 83.3 °F 89.6 °F 73.6 °F 72% 30.10 in 10.0 mi ESE 8.1 mph - N/A   Scattered Clouds
6:15 PM 82.9 °F 89.1 °F 73.6 °F 73% 30.10 in 10.0 mi ESE 6.9 mph - N/A   Unknown
6:35 PM 82.2 °F 88.0 °F 73.4 °F 75% 30.09 in 10.0 mi ESE 8.1 mph - N/A   Clear
6:55 PM 81.0 °F 86.0 °F 73.4 °F 78% 30.09 in 10.0 mi ESE 6.9 mph - N/A   Clear
7:15 PM 80.1 °F 84.4 °F 73.4 °F 80% 30.09 in 10.0 mi ESE 5.8 mph - N/A   Clear
7:35 PM 78.8 °F - 72.9 °F 82% 30.09 in 10.0 mi ESE 5.8 mph - N/A   Clear
7:55 PM 77.9 °F - 72.9 °F 84% 30.09 in 10.0 mi Calm Calm - N/A   Clear
8:15 PM 76.3 °F - 72.9 °F 89% 30.10 in 10.0 mi East 3.5 mph - N/A   Clear
8:35 PM 75.6 °F - 73.0 °F 92% 30.11 in 10.0 mi Calm Calm - N/A   Clear
8:55 PM 75.4 °F - 73.4 °F 94% 30.12 in 10.0 mi Calm Calm - N/A   Mostly Cloudy
9:15 PM 75.2 °F - 73.9 °F 96% 30.13 in 10.0 mi ENE 3.5 mph - N/A   Overcast
9:35 PM 74.7 °F - 74.3 °F 99% 30.13 in 10.0 mi East 3.5 mph - N/A   Overcast
9:55 PM 74.7 °F - 74.3 °F 99% 30.14 in 10.0 mi East 4.6 mph - N/A   Overcast
10:15 PM 74.7 °F - 74.5 °F 99% 30.14 in 10.0 mi East 3.5 mph - N/A   Overcast
10:35 PM 74.5 °F - 74.5 °F 100% 30.14 in 10.0 mi Calm Calm - N/A   Overcast
10:55 PM 74.5 °F - 74.5 °F 100% 30.16 in 10.0 mi Calm Calm - N/A   Overcast
11:15 PM 74.3 °F - 74.3 °F 100% 30.15 in 10.0 mi Calm Calm - N/A   Overcast
11:35 PM 74.1 °F - 74.1 °F 100% 30.14 in 10.0 mi Calm Calm - N/A   Mostly Cloudy
11:55 PM 73.8 °F - 73.8 °F 100% 30.14 in 10.0 mi Calm Calm - N/A   Mostly Cloudy